Theta_e
290 289 289 288 288 288 287 287 286 286 285 285 284 284 284 284 284 283 282 282 282 282 282 282 282 281 282 281 281 281 281 281 281 281 281 281 281 281 280 281 281 281
289 288 288 288 287 287 286 286 286 285 284 284 284 283 283 283 283 282 281 281 281 281 281 281 281 281 280 280 280 280 279 280 279 281 280 280 280 280 280 280 280 281
288 287 287 286 286 285 285 285 285 284 283 283 283 282 282 282 281 281 281 280 280 280 280 280 280 280 279 279 279 279 279 279 278 279 279 279 280 279 280 280 280 280
287 286 285 285 285 284 284 283 283 282 282 282 281 281 281 281 281 280 279 280 279 279 279 279 279 279 279 278 278 278 278 278 278 279 278 279 279 279 279 279 279 279
285 285 285 284 284 284 283 282 281 281 281 281 281 281 280 280 279 279 279 279 278 278 278 278 278 278 278 278 278 277 277 278 278 278 278 277 278 278 279 279 278 278
284 284 284 283 283 282 282 281 281 281 281 280 280 280 279 279 278 278 278 277 277 277 277 277 277 277 277 277 277 276 276 276 277 277 277 276 277 278 278 278 277 277
283 283 282 282 282 281 281 280 280 280 280 280 279 279 279 278 277 277 277 277 277 277 277 276 276 276 276 276 276 275 275 276 276 276 275 275 276 276 276 276 276 276
282 282 281 281 280 280 280 280 279 279 279 279 278 278 278 277 277 277 277 276 276 276 276 275 275 275 275 275 274 274 274 274 274 274 274 273 274 273 274 275 275 274
281 280 280 279 279 279 278 278 278 278 278 277 277 277 277 277 276 276 276 276 275 275 274 274 274 274 274 273 273 273 272 272 273 272 272 272 272 272 272 273 272 272
280 279 278 278 277 278 277 277 277 277 277 276 276 276 276 276 276 275 275 274 273 273 273 273 273 273 273 272 272 272 271 271 271 271 271 271 271 271 271 271 271 271
278 278 277 277 277 277 276 276 276 276 276 275 275 275 275 275 274 274 273 273 272 272 272 272 272 272 271 271 271 271 271 271 270 270 270 270 270 270 271 270 270 270
277 277 277 276 276 276 276 276 275 275 275 275 275 274 274 273 273 272 272 271 272 271 271 271 271 271 271 270 270 271 271 270 270 270 270 270 270 270 270 270 270 271
277 277 276 276 276 276 276 275 275 274 274 274 274 273 272 272 271 271 271 271 271 271 270 270 270 270 270 270 270 270 270 270 270 270 270 270 271 271 271 271 271 271
277 277 276 276 276 275 275 275 274 274 273 273 272 271 270 270 270 270 270 270 270 270 270 270 270 270 270 270 270 270 270 270 270 270 271 271 271 271 272 272 272 272
276 276 276 275 275 274 274 273 273 273 272 271 270 270 270 269 269 269 269 269 269 269 269 270 270 270 270 270 270 270 271 271 271 271 271 271 271 272 272 272 272 272
276 275 275 274 274 273 273 272 272 271 270 269 268 268 268 268 268 268 268 268 268 269 269 269 270 270 271 272 273 271 272 272 272 272 272 272 272 271 272 272 272 273
275 274 274 273 273 272 272 271 270 269 268 267 267 267 267 267 267 266 267 268 268 268 269 269 270 270 272 273 274 275 274 273 272 272 273 273 273 272 272 272 273 273
274 273 272 272 271 271 269 269 268 267 266 266 266 266 266 266 266 266 267 268 268 268 268 269 269 271 272 273 274 275 275 274 273 273 273 273 273 273 272 273 273 273
273 272 271 270 270 269 268 267 266 265 265 265 265 266 266 266 266 266 267 268 268 268 268 268 268 271 272 273 274 275 276 276 274 273 273 272 273 273 273 273 273 273
272 271 270 269 268 267 266 265 264 264 265 265 265 265 265 265 266 266 267 267 267 267 267 268 268 270 272 273 275 276 276 276 274 273 273 273 273 273 273 273 273 272
270 269 268 267 266 265 265 264 264 264 264 265 265 265 265 265 266 266 266 266 266 266 266 266 267 270 272 274 275 275 276 276 274 273 273 273 273 273 273 273 273 273
269 268 267 266 265 264 264 264 264 264 264 265 265 266 266 266 266 266 266 265 266 265 265 265 267 271 272 273 274 275 277 274 273 273 273 273 273 273 273 273 274 273
268 267 266 265 264 264 263 264 264 264 264 265 264 265 265 265 265 265 266 265 265 265 265 265 266 269 272 273 274 276 275 273 272 272 272 272 272 273 273 273 274 274
267 266 265 264 264 263 263 264 264 264 264 265 264 264 265 265 265 265 265 266 265 265 265 265 266 268 272 273 274 275 275 272 272 271 271 272 272 273 273 274 274 276
266 266 265 264 263 264 264 264 264 264 264 265 264 265 264 265 265 265 265 265 265 265 267 267 267 269 272 273 274 275 274 272 272 271 271 271 272 272 273 273 274 275
265 265 264 264 263 263 263 263 264 263 264 264 264 264 264 265 265 265 264 264 265 266 266 268 268 268 270 273 274 274 275 273 272 271 270 271 271 272 271 272 273 273
Wind_Speed
10 9 9 8 8 7 8 7 6 6 5 4 4 4 4 3 3 3 4 5 6 7 7 7 7 7 7 7 7 7 7 8 8 8 9 9 10 11 11 12 13 12
12 11 9 8 8 7 7 7 7 6 6 5 4 4 3 3 3 4 5 5 6 7 7 7 7 8 8 7 7 8 8 8 9 7 9 11 10 11 12 13 14 13
12 11 11 11 9 10 9 8 7 6 6 5 5 4 3 3 4 4 5 6 6 7 7 8 8 8 8 8 8 8 8 9 9 9 9 10 10 11 11 11 11 13
13 12 11 11 9 10 9 8 7 6 6 5 5 4 4 3 4 5 6 7 7 7 7 8 8 8 8 8 8 8 9 9 9 9 10 10 10 10 11 11 12 12
13 12 10 10 9 9 9 9 9 7 7 6 5 5 5 5 6 6 6 6 6 7 7 8 8 8 8 8 8 8 8 9 9 9 10 11 10 10 10 10 12 14
11 11 11 11 10 10 9 9 9 8 8 7 7 6 6 6 6 6 6 7 6 7 8 8 8 8 8 8 8 8 8 8 9 9 10 11 11 11 10 11 13 14
13 12 12 11 11 10 9 9 8 8 8 7 6 7 6 6 7 7 7 7 8 8 8 8 8 8 7 7 8 9 9 9 10 10 11 11 11 12 12 12 13 14
14 12 12 10 11 11 10 9 8 8 8 7 7 7 6 7 7 6 7 8 8 9 9 9 9 9 8 7 8 9 9 7 8 10 11 12 11 13 12 11 12 14
13 12 12 12 12 10 10 9 9 8 8 8 7 6 6 7 7 7 7 7 8 8 9 9 9 8 7 7 8 9 9 9 9 10 11 12 12 13 12 12 13 14
13 12 13 13 12 10 11 10 9 8 8 8 7 6 7 6 7 7 7 7 8 9 9 9 8 7 7 8 8 9 9 10 10 10 11 12 12 13 12 12 13 14
14 13 13 13 12 10 11 10 10 8 8 8 8 7 7 6 6 6 7 8 8 9 8 8 8 7 7 8 8 8 9 10 10 11 11 12 12 12 12 13 14 14
14 13 13 13 12 11 12 10 9 9 8 8 8 7 6 6 6 5 6 7 8 8 8 7 7 7 8 8 9 9 9 10 10 11 11 11 12 12 12 12 13 14
14 13 12 12 12 11 10 10 9 9 9 8 7 7 6 6 6 6 6 7 8 8 7 7 7 7 7 8 9 9 10 10 10 11 11 10 11 12 14 15 17 17
13 13 12 12 11 10 10 10 9 9 8 7 6 6 6 6 6 6 7 7 7 7 7 6 7 7 8 8 9 8 8 9 9 11 12 14 14 14 14 15 16 18
12 11 11 11 11 10 10 9 9 8 8 7 6 6 5 6 6 6 7 8 8 8 7 7 7 7 6 6 7 8 8 10 11 12 13 13 14 15 15 17 17 17
12 10 11 11 10 10 10 9 8 7 6 6 6 6 5 5 5 6 7 8 8 7 7 6 6 6 8 13 12 9 10 10 11 13 13 14 14 15 17 15 18 16
11 11 11 11 10 8 8 8 8 7 6 6 6 5 5 5 6 7 8 8 8 7 6 6 6 6 11 12 13 16 13 12 12 12 13 13 14 15 15 18 15 18
10 10 9 9 9 8 8 8 7 7 7 6 6 6 5 5 6 8 8 7 6 6 6 6 7 9 13 13 15 16 16 12 11 12 11 12 13 14 15 15 18 16
9 9 9 9 9 9 8 7 7 7 6 6 6 5 5 6 7 7 7 6 5 6 6 7 8 10 12 14 15 16 17 15 11 11 12 13 14 16 16 17 14 18
9 9 9 9 9 8 8 8 7 7 6 5 5 5 5 6 7 7 6 6 5 5 6 7 8 10 13 14 15 17 17 15 11 12 13 14 15 14 15 15 18 17
9 8 9 9 8 8 8 7 7 6 6 5 5 5 6 6 6 6 6 5 4 5 5 7 7 12 13 15 16 17 17 16 11 12 12 13 13 15 17 18 18 17
9 9 9 9 9 8 8 8 7 7 7 6 5 4 5 5 5 5 5 5 6 6 6 7 8 12 14 14 15 16 19 12 11 12 12 12 14 16 17 16 16 19
9 10 9 9 9 9 8 8 7 7 6 5 5 5 5 6 5 4 4 4 6 6 6 7 7 11 13 14 15 17 14 10 11 11 12 14 15 16 16 16 16 17
9 9 10 9 8 8 8 7 6 5 5 5 5 5 6 5 4 4 4 5 5 6 6 6 7 10 13 14 15 16 16 11 11 12 14 14 15 16 13 15 19 29
8 8 8 8 8 7 7 7 6 5 5 4 4 4 4 4 4 4 4 4 5 6 9 8 7 8 11 12 15 16 14 10 10 11 13 14 14 14 16 17 17 19
7 8 8 8 8 8 6 6 5 5 5 4 4 4 4 4 4 4 4 4 4 5 6 5 6 5 7 13 14 16 17 12 10 11 13 15 14 16 18 18 17 15
Wind_Direction
178 177 177 176 178 178 179 183 187 190 196 199 207 210 214 210 200 219 243 253 254 262 264 265 268 269 269 271 271 271 271 270 271 272 272 270 267 265 265 263 264 262
177 173 171 172 174 173 176 179 185 187 193 197 201 211 216 221 227 235 246 253 258 259 262 263 266 266 269 271 273 271 272 272 270 270 270 268 268 267 266 265 264 263
173 171 170 173 175 174 175 175 180 185 187 194 200 211 218 223 239 242 247 250 257 262 264 264 261 263 264 265 268 269 269 270 270 271 271 269 268 267 266 268 267 266
172 169 169 173 173 171 171 171 176 180 184 188 198 203 206 217 228 240 246 248 251 255 258 258 260 263 265 267 268 268 269 269 269 271 271 269 267 266 268 267 268 267
168 167 169 171 171 167 168 176 179 182 184 187 188 195 203 217 227 234 237 245 247 255 258 259 263 264 266 266 265 268 269 272 271 270 269 271 269 269 270 270 269 269
166 166 167 169 170 168 176 179 181 179 181 186 192 194 207 213 224 232 242 244 248 254 257 259 260 260 259 262 266 266 268 269 270 270 271 271 274 270 270 269 270 270
166 165 167 167 167 173 177 178 176 178 184 186 186 199 199 210 219 229 234 239 246 250 253 258 259 261 262 263 262 265 265 267 270 270 272 273 273 273 269 271 271 272
165 164 165 167 168 173 178 173 175 180 180 182 192 197 199 211 218 225 231 239 243 247 252 255 256 256 258 258 259 265 267 267 269 272 271 272 273 273 274 272 273 272
161 165 167 168 170 173 177 173 176 178 179 184 191 193 199 206 216 220 228 233 242 247 249 251 251 252 252 255 260 263 267 267 268 270 271 271 270 270 273 275 275 274
165 165 167 169 171 173 174 173 175 176 180 184 189 193 197 204 209 218 228 237 242 244 244 246 248 250 252 260 260 262 265 267 268 266 266 268 268 270 272 273 272 273
165 164 168 170 170 170 172 171 175 174 179 184 185 193 197 200 210 216 228 234 237 239 243 243 247 251 255 258 261 261 263 266 268 267 264 266 267 268 270 271 271 269
166 166 169 169 168 169 169 172 172 176 178 181 186 191 193 202 210 221 224 233 238 242 245 249 249 252 255 259 263 264 264 264 265 266 267 267 269 270 269 268 271 276
168 167 165 164 167 166 165 169 173 174 177 177 179 184 190 203 212 218 228 233 240 242 244 246 250 254 254 258 259 262 264 264 268 271 270 271 271 275 279 279 278 276
164 162 162 161 161 159 164 168 168 169 173 170 172 180 192 205 213 220 228 234 240 242 244 245 249 251 254 255 261 264 267 270 271 276 280 281 278 276 275 274 274 273
155 155 154 153 155 157 159 163 163 164 165 168 172 182 195 204 213 222 231 238 238 239 241 244 245 249 249 253 258 269 271 277 277 276 277 279 280 278 276 276 272 271
149 146 150 150 153 157 160 161 160 160 162 167 174 187 196 205 213 227 231 235 238 239 240 242 245 245 243 250 259 267 277 280 282 282 282 281 278 280 279 274 275 272
144 149 148 152 154 154 155 156 157 157 162 169 177 190 199 204 218 228 230 231 231 236 243 248 250 248 253 261 270 279 283 285 284 285 283 279 281 282 281 283 281 280
146 146 147 150 149 151 150 150 151 155 163 171 180 191 199 203 219 226 230 231 232 240 247 252 256 256 262 270 279 283 286 287 288 289 289 288 285 284 285 288 288 286
143 145 145 146 148 147 144 146 154 159 167 175 188 189 194 209 221 227 229 231 237 241 252 258 261 266 272 281 285 288 291 295 293 290 288 285 285 285 287 288 286 291
144 142 144 144 142 143 145 152 160 169 170 175 178 189 202 219 223 226 229 232 236 245 258 265 267 270 279 285 290 296 300 302 295 292 290 288 286 286 288 290 292 290
142 141 140 140 141 145 151 157 162 164 169 176 181 191 204 216 221 221 228 226 239 248 253 264 268 274 283 291 297 302 304 307 301 297 291 285 286 289 291 290 287 287
139 141 138 139 146 151 154 159 162 166 170 177 182 194 207 221 229 224 226 230 236 243 251 264 274 281 293 297 303 308 312 311 305 299 296 294 293 293 290 287 287 288
146 141 141 143 149 150 156 160 159 166 169 174 179 197 209 216 217 226 229 230 237 244 255 269 277 286 297 305 311 314 316 311 307 302 299 298 296 294 292 290 290 288
144 141 139 143 148 153 154 152 150 156 167 179 179 200 210 210 218 232 234 233 241 247 256 267 277 287 299 309 316 316 318 314 310 307 303 301 298 295 293 294 295 295
123 124 131 138 141 145 145 147 152 157 162 169 189 207 216 215 222 235 236 247 248 253 263 270 272 283 301 313 316 318 320 316 311 306 305 302 301 300 301 301 298 298
117 119 123 129 135 128 130 133 141 149 161 169 193 208 215 217 217 232 243 257 259 250 252 268 283 292 301 310 318 320 321 317 311 308 304 305 305 306 306 305 304 301